Location: Christchurch
(43.5330°S, 172.6330°E)
Time: 15:45:58
(UTC+13:00)

Lacrosse 5 - Pass Details

Date: 24 January 2019
Orbit: 713 x 725 km, 57.0° (Epoch: 17 February)

Event Time Altitude Azimuth Distance (km) Brightness Sun altitude
Rises 22:51:20 0° 240° (WSW) 3,167 6.6 -16.1°
Reaches altitude 10° 22:54:24 10° 258° (WSW) 2,235 5.2 -16.5°
Maximum altitude 22:57:49 18° 300° (WNW) 1,736 3.9 -16.9°
Enters shadow 23:01:11 10° 342° (NNW) 2,201 4.1 -17.3°
